Weather History for Dayton, OH

Change the Weather History Date:

Wednesday, April 3, 2013

  Actual Average Record
Temperature  
Mean Temperature 36 °F 47 °F  
Max Temperature 47 °F 57 °F 81 °F (1940)
Min Temperature 25 °F 37 °F 20 °F (1965)
Degree Days  
Heating Degree Days 29 18  
Month to date heating degree days 89 55  
Since 1 July heating degree days 5051 5094  
Cooling Degree Days 0 0  
Month to date cooling degree days 0 0  
Year to date cooling degree days 0 0  
Moisture  
Dew Point 14 °F    
Average Humidity 45    
Maximum Humidity 60    
Minimum Humidity 30    
Precipitation  
Precipitation 0.00 in 0.12 in 1.75 in (1957)
Month to date precipitation 0.00 0.38  
Year to date precipitation 7.55 8.67  
Snow  
Snow 0.00 in 0.00 in 2.00 in (1994)
Month to date snowfall 0.0 0.1  
Since 1 July snowfall 35.9 22.8  
Snow Depth 0.00 in    
Sea Level Pressure  
Sea Level Pressure 30.38 in    
Wind  
Wind Speed 5 mph (NNE)    
Max Wind Speed 18 mph    
Max Gust Speed 24 mph    
Visibility 10 miles    
Events      
T = Trace of Precipitation, MM = Missing Value Source: NWS Daily Summary

Daily Weather History Graph

Daily Weather History Graph

Search for Another Location

Airport:

Trip Planner

Search our weather history database for the weather conditions in past years. The results will help you decide how hot, cold, wet, or windy it might be!

Date:

Astronomy

Apr. 03, 2013 Rise Set
Actual Time 7:17 AM EDT 8:03 PM EDT
Civil Twilight 6:49 AM EDT 8:30 PM EDT
Nautical Twilight 6:17 AM EDT 9:03 PM EDT
Astronomical Twilight 5:44 AM EDT 9:36 PM EDT
Moon 2:57 AM EDT (4/3) 1:14 PM EDT (4/3)
Length of Visible Light 13h 40m
Length of Day
12h 46m
Last Quarter, 45% of the Moon is Illuminated
Apr 3
Last Quarter
Apr 10
New
Apr 18
First Quarter
Apr 25
Full
May 2
Last Quarter

Hourly Weather History & Observations

Time (EDT) Temp. Windchill Dew Point Humidity Pressure Visibility Wind Dir Wind Speed Gust Speed Precip Events Conditions
12:56 AM 30.0 °F 26.5 °F 12.0 °F 47% 30.30 in 10.0 mi North 3.5 mph - N/A   Clear
1:56 AM 30.0 °F 26.5 °F 10.9 °F 45% 30.31 in 10.0 mi NNW 3.5 mph - N/A   Clear
2:56 AM 27.0 °F 23.0 °F 10.9 °F 51% 30.31 in 10.0 mi NW 3.5 mph - N/A   Clear
3:56 AM 28.0 °F 22.8 °F 10.9 °F 49% 30.31 in 10.0 mi NNW 4.6 mph - N/A   Clear
4:56 AM 28.0 °F 22.8 °F 12.9 °F 53% 30.32 in 10.0 mi NW 4.6 mph - N/A   Clear
5:56 AM 26.1 °F 20.5 °F 12.9 °F 58% 30.33 in 10.0 mi NNW 4.6 mph - N/A   Clear
6:56 AM 25.0 °F 18.1 °F 12.9 °F 60% 30.35 in 10.0 mi NNW 5.8 mph - N/A   Clear
7:56 AM 26.1 °F 21.9 °F 12.9 °F 58% 30.35 in 10.0 mi North 3.5 mph - N/A   Partly Cloudy
8:56 AM 30.9 °F - 15.1 °F 52% 30.41 in 10.0 mi Calm Calm - N/A   Partly Cloudy
9:56 AM 34.0 °F - 12.9 °F 42% 30.45 in 10.0 mi Calm Calm - N/A   Clear
10:56 AM 36.0 °F 32.1 °F 10.9 °F 36% 30.45 in 10.0 mi NNE 4.6 mph - N/A   Scattered Clouds
11:56 AM 39.0 °F 36.8 °F 12.0 °F 33% 30.45 in 10.0 mi North 3.5 mph - N/A   Mostly Cloudy
12:56 PM 39.0 °F 36.8 °F 12.0 °F 33% 30.43 in 10.0 mi Variable 3.5 mph - N/A   Scattered Clouds
1:56 PM 43.0 °F 39.5 °F 14.0 °F 31% 30.43 in 10.0 mi Variable 5.8 mph 19.6 mph N/A   Mostly Cloudy
2:56 PM 43.0 °F 36.4 °F 14.0 °F 31% 30.40 in 10.0 mi NNE 12.7 mph 20.7 mph N/A   Partly Cloudy
3:56 PM 45.0 °F 40.1 °F 16.0 °F 31% 30.40 in 10.0 mi NNE 9.2 mph 17.3 mph N/A   Partly Cloudy
4:56 PM 45.0 °F 42.6 °F 16.0 °F 31% 30.39 in 10.0 mi Variable 4.6 mph - N/A   Mostly Cloudy
5:56 PM 45.0 °F 42.6 °F 15.1 °F 30% 30.40 in 10.0 mi ENE 4.6 mph - N/A   Mostly Cloudy
6:56 PM 45.0 °F 41.2 °F 16.0 °F 31% 30.40 in 10.0 mi NNE 6.9 mph - N/A   Scattered Clouds
7:56 PM 39.9 °F 35.1 °F 16.0 °F 38% 30.38 in 10.0 mi ENE 6.9 mph - N/A   Scattered Clouds
8:56 PM 39.0 °F 34.8 °F 14.0 °F 36% 30.38 in 10.0 mi ENE 5.8 mph - N/A   Partly Cloudy
9:56 PM 34.0 °F 27.2 °F 16.0 °F 48% 30.36 in 10.0 mi ENE 8.1 mph - N/A   Clear
10:56 PM 33.1 °F 26.9 °F 15.1 °F 48% 30.36 in 10.0 mi East 6.9 mph - N/A   Clear
11:56 PM 34.0 °F 27.2 °F 14.0 °F 44% 30.37 in 10.0 mi East 8.1 mph - N/A   Partly Cloudy